Camanche, IA

11:58 AM CDT on October 01, 2016 (GMT -0500)
Clinton Municipal

Weather History for KCWI - April, 2014

Change the Weather History Date:

Wednesday, April 23, 2014

  Actual Average Record
Temperature  
Mean Temperature 42 °F -  
Max Temperature 53 °F 64 °F 89 °F (1980)
Min Temperature 32 °F 42 °F 21 °F (2015)
Degree Days  
Heating Degree Days 22    
Moisture  
Dew Point 31 °F    
Average Humidity 62    
Maximum Humidity 81    
Minimum Humidity 38    
Precipitation  
Precipitation 0.04 in - - ()
Sea Level Pressure  
Sea Level Pressure 30.12 in    
Wind  
Wind Speed 10 mph (ESE)    
Max Wind Speed 18 mph    
Max Gust Speed 21 mph    
Visibility 10 miles    
Events      
Averages and records for this station are not official NWS values.
T = Trace of Precipitation, MM = Missing Value Source: NWS Daily Summary

Daily Weather History Graph

Daily Weather History Graph

Search for Another Location

Airport or City:

Trip Planner

Search our weather history database for the weather conditions in past years. The results will help you decide how hot, cold, wet, or windy it might be!

Date:

Astronomy

Apr. 23, 2014 Rise Set
Actual Time 6:08 AM CDT 7:51 PM CDT
Civil Twilight 5:39 AM CDT 8:20 PM CDT
Nautical Twilight 5:03 AM CDT 8:56 PM CDT
Astronomical Twilight 4:25 AM CDT 9:35 PM CDT
Moon 2:46 AM CDT (4/23) 1:54 PM CDT (4/23)
Length of Visible Light 14h 41m
Length of Day
13h 42m
Waning Crescent, 34% of the Moon is Illuminated
Apr 23
Waning Crescent
Apr 29
New
May 6
First Quarter
May 14
Full
May 21
Last Quarter

Hourly Weather History & Observations

Time (CDT) Temp. Windchill Dew Point Humidity Pressure Visibility Wind Dir Wind Speed Gust Speed Precip Events Conditions
12:15 AM 39.2 °F 35.0 °F 26.6 °F 61% 30.10 in 10.0 mi NE 5.8 mph - N/A   Clear
12:35 AM 39.2 °F 32.0 °F 28.4 °F 65% 30.11 in 10.0 mi East 11.5 mph - N/A   Clear
12:55 AM 42.8 °F 36.2 °F 30.2 °F 61% 30.12 in 10.0 mi East 12.7 mph - N/A   Clear
1:15 AM 41.0 °F 33.9 °F 30.2 °F 65% 30.12 in 10.0 mi ESE 12.7 mph - N/A   Clear
1:35 AM 41.0 °F 34.7 °F 30.2 °F 65% 30.13 in 10.0 mi ESE 10.4 mph - N/A   Clear
1:55 AM 39.2 °F 32.5 °F 30.2 °F 70% 30.13 in 10.0 mi ESE 10.4 mph - N/A   Clear
2:15 AM 39.2 °F 33.6 °F 28.4 °F 65% 30.13 in 10.0 mi ESE 8.1 mph - N/A   Clear
2:35 AM 37.4 °F 32.8 °F 28.4 °F 70% 30.13 in 10.0 mi East 5.8 mph - N/A   Clear
2:55 AM 33.8 °F 26.4 °F 28.4 °F 81% 30.14 in 10.0 mi East 9.2 mph - N/A   Clear
3:15 AM 35.6 °F 29.9 °F 28.4 °F 75% 30.14 in 10.0 mi ESE 6.9 mph - N/A   Clear
3:35 AM 33.8 °F 27.7 °F 26.6 °F 75% 30.13 in 10.0 mi East 6.9 mph - N/A   Clear
3:55 AM 35.6 °F 30.7 °F 28.4 °F 75% 30.14 in 10.0 mi East 5.8 mph - N/A   Clear
4:15 AM 35.6 °F 32.8 °F 28.4 °F 75% 30.15 in 10.0 mi SE 3.5 mph - N/A   Clear
4:35 AM 35.6 °F 30.7 °F 28.4 °F 75% 30.16 in 10.0 mi SE 5.8 mph - N/A   Clear
4:55 AM 35.6 °F 28.6 °F 28.4 °F 75% 30.15 in 10.0 mi ESE 9.2 mph - N/A   Clear
5:15 AM 32.0 °F 25.6 °F 26.6 °F 80% 30.17 in 10.0 mi East 6.9 mph - N/A   Clear
5:35 AM 33.8 °F 27.7 °F 26.6 °F 75% 30.17 in 10.0 mi ESE 6.9 mph - N/A   Clear
5:55 AM 33.8 °F 28.6 °F 26.6 °F 75% 30.18 in 10.0 mi East 5.8 mph - N/A   Clear
6:15 AM 33.8 °F 29.6 °F 26.6 °F 75% 30.17 in 10.0 mi East 4.6 mph - N/A   Clear
6:35 AM 33.8 °F 30.8 °F 26.6 °F 75% 30.19 in 10.0 mi East 3.5 mph - N/A   Partly Cloudy
6:55 AM 33.8 °F 29.6 °F 28.4 °F 81% 30.20 in 10.0 mi ESE 4.6 mph - N/A   Clear
7:15 AM 37.4 °F 32.1 °F 28.4 °F 70% 30.20 in 10.0 mi SE 6.9 mph - N/A   Clear
7:35 AM 39.2 °F 34.2 °F 28.4 °F 65% 30.21 in 10.0 mi ESE 6.9 mph - N/A   Clear
7:55 AM 39.2 °F 32.0 °F 28.4 °F 65% 30.21 in 10.0 mi ESE 11.5 mph - N/A   Partly Cloudy
8:15 AM 41.0 °F 33.9 °F 28.4 °F 61% 30.19 in 10.0 mi ESE 12.7 mph - N/A   Clear
8:35 AM 41.0 °F 34.7 °F 28.4 °F 61% 30.20 in 10.0 mi ESE 10.4 mph - N/A   Mostly Cloudy
8:55 AM 42.8 °F 37.5 °F 28.4 °F 57% 30.21 in 10.0 mi ESE 9.2 mph - N/A   Scattered Clouds
9:15 AM 42.8 °F 37.5 °F 28.4 °F 57% 30.20 in 10.0 mi ESE 9.2 mph - N/A   Partly Cloudy
9:35 AM 42.8 °F 36.6 °F 28.4 °F 57% 30.20 in 10.0 mi ESE 11.5 mph - N/A   Clear
9:55 AM 44.6 °F 40.2 °F 30.2 °F 57% 30.21 in 10.0 mi SE 8.1 mph - N/A   Clear
10:15 AM 44.6 °F 39.7 °F 30.2 °F 57% 30.21 in 10.0 mi SE 9.2 mph - N/A   Clear
10:35 AM 44.6 °F 39.7 °F 28.4 °F 53% 30.21 in 10.0 mi ESE 9.2 mph - N/A   Partly Cloudy
10:55 AM 46.4 °F 41.5 °F 28.4 °F 50% 30.21 in 10.0 mi SE 10.4 mph - N/A   Clear
11:15 AM 46.4 °F 41.5 °F 28.4 °F 50% 30.20 in 10.0 mi ESE 10.4 mph - N/A   Clear
11:35 AM 46.4 °F 41.1 °F 28.4 °F 50% 30.19 in 10.0 mi ESE 11.5 mph - N/A   Clear
12:15 PM 48.2 °F - 28.4 °F 46% 30.18 in 10.0 mi SE 12.7 mph - N/A   Clear
12:35 PM 48.2 °F - 28.4 °F 46% 30.17 in 10.0 mi SE 13.8 mph - N/A   Scattered Clouds
12:55 PM 48.2 °F - 28.4 °F 46% 30.15 in 10.0 mi ESE 11.5 mph 17.3 mph N/A   Scattered Clouds
1:15 PM 51.8 °F - 30.2 °F 44% 30.15 in 10.0 mi SE 12.7 mph 17.3 mph N/A   Clear
1:35 PM 51.8 °F - 28.4 °F 41% 30.15 in 10.0 mi SE 10.4 mph 16.1 mph N/A   Clear
1:55 PM 51.8 °F - 28.4 °F 41% 30.14 in 10.0 mi ESE 11.5 mph - N/A   Partly Cloudy
2:15 PM 53.6 °F - 30.2 °F 41% 30.14 in 10.0 mi ESE 10.4 mph - N/A   Clear
2:35 PM 53.6 °F - 28.4 °F 38% 30.12 in 10.0 mi ESE 11.5 mph 16.1 mph N/A   Clear
3:15 PM 53.6 °F - 28.4 °F 38% 30.13 in 10.0 mi ESE 6.9 mph - N/A   Partly Cloudy
3:35 PM 53.6 °F - 30.2 °F 41% 30.12 in 10.0 mi East 9.2 mph - N/A   Mostly Cloudy
3:55 PM 53.6 °F - 28.4 °F 38% 30.12 in 10.0 mi East 10.4 mph - N/A   Overcast
4:15 PM 53.6 °F - 28.4 °F 38% 30.11 in 10.0 mi ESE 11.5 mph - N/A   Overcast
4:35 PM 53.6 °F - 28.4 °F 38% 30.10 in 10.0 mi ESE 9.2 mph - N/A   Overcast
4:55 PM 53.6 °F - 28.4 °F 38% 30.09 in 10.0 mi ESE 11.5 mph - N/A   Overcast
5:15 PM 51.8 °F - 33.8 °F 50% 30.08 in 10.0 mi East 10.4 mph - N/A   Overcast
5:35 PM 50.0 °F - 35.6 °F 58% 30.06 in 10.0 mi East 13.8 mph - N/A   Overcast
5:55 PM 50.0 °F - 37.4 °F 62% 30.04 in 10.0 mi East 15.0 mph - N/A   Overcast
6:15 PM 50.0 °F - 35.6 °F 58% 30.05 in 10.0 mi ESE 9.2 mph - N/A   Overcast
6:35 PM 48.2 °F - 37.4 °F 66% 30.03 in 10.0 mi ESE 12.7 mph - 0.01 in   Overcast
6:55 PM 48.2 °F - 37.4 °F 66% 30.03 in 10.0 mi ESE 11.5 mph - 0.01 in   Overcast
7:15 PM 48.2 °F - 37.4 °F 66% 30.03 in 10.0 mi SSE 10.4 mph - 0.02 in   Mostly Cloudy
7:35 PM 48.2 °F - 37.4 °F 66% 30.02 in 10.0 mi SE 11.5 mph - 0.02 in   Overcast
7:55 PM 46.4 °F 40.4 °F 39.2 °F 76% 30.00 in 10.0 mi ESE 13.8 mph - 0.02 in   Overcast
8:15 PM 46.4 °F 41.9 °F 39.2 °F 76% 30.02 in 10.0 mi ESE 9.2 mph - 0.01 in   Overcast
8:35 PM 46.4 °F 41.9 °F 39.2 °F 76% 30.02 in 10.0 mi ESE 9.2 mph - 0.01 in   Overcast
8:55 PM 48.2 °F - 39.2 °F 71% 30.02 in 10.0 mi ESE 9.2 mph - 0.01 in   Overcast
9:15 PM 46.4 °F 40.1 °F 39.2 °F 76% 29.99 in 10.0 mi ESE 15.0 mph - N/A   Overcast
9:35 PM 46.4 °F 39.8 °F 39.2 °F 76% 29.98 in 10.0 mi East 16.1 mph - N/A   Overcast
9:55 PM 46.4 °F 39.8 °F 39.2 °F 76% 30.00 in 10.0 mi ESE 16.1 mph 20.7 mph N/A   Overcast
10:15 PM 46.4 °F 40.4 °F 37.4 °F 71% 30.01 in 10.0 mi ESE 13.8 mph - N/A   Overcast
10:35 PM 46.4 °F 40.4 °F 37.4 °F 71% 30.03 in 10.0 mi SE 13.8 mph - N/A   Overcast
10:55 PM 46.4 °F 39.5 °F 35.6 °F 66% 30.01 in 10.0 mi ESE 17.3 mph - N/A   Overcast
11:15 PM 46.4 °F 39.5 °F 35.6 °F 66% 30.00 in 10.0 mi ESE 17.3 mph - N/A   Overcast
11:35 PM 44.6 °F 36.9 °F 35.6 °F 71% 29.98 in 10.0 mi ESE 18.4 mph - N/A   Overcast
11:55 PM 44.6 °F 37.4 °F 35.6 °F 71% 29.99 in 10.0 mi East 16.1 mph - N/A   Overcast